Location: Newark
(39.6867°N, 100.6772°W)
Time: 07:41:02
(UTC+00:00)

Vanguard 1 - Pass Details

Date: 18 October 2019
Orbit: 652 x 3831 km, 34.2° (Epoch: 18 November)

Event Time Altitude Azimuth Distance (km) Brightness Sun altitude
Rises 06:51:16 0° 279° (W) 5,855 14.0 -59.4°
Enters shadow 06:52:28 - 278° (W) 5,608 13.9 -59.4°
Reaches altitude 10° 06:54:36 10° 275° (W) 5,197 - -59.3°
Maximum altitude 07:10:48 55° 204° (SSW) 3,908 - -58.4°
Exits shadow 07:29:45 17° 138° (SE) 6,311 13.9 -56.9°
Drops below altitude 10° 07:33:11 10° 135° (SE) 6,885 14.2 -56.5°
Sets 07:38:31 0° 131° (SE) 7,780 14.6 -56.0°
